Location: Canyam�s
(41.5996°N, 2.4450°E)
Time: 03:39:03
(UTC+00:00)

ATLAS CENTAUR R/B - Pass Details

Date: 08 October 2020
Orbit: 479 x 667 km, 64.7° (Epoch: 12 October)

Event Time Altitude Azimuth Distance (km) Brightness Sun altitude
Rises 20:23:35 0° 318° (NW) 2,546 5.6 -34.4°
Reaches altitude 10° 20:25:48 10° 309° (NW) 1,672 4.5 -34.8°
Enters shadow 20:25:52 10° 309° (NW) 1,646 4.5 -34.8°
